CW7794 Weather Reports


time (UTC)temp
C
wind
direction
speed
KPH
gust
KPH
rain 1hr
cm
rain 24hr
cm
rain mn
cm
humidity
%
barometer
mb
20260506232516 23 315 9.7 22.5 0.00 0.00 0.00 57 1017.2
20260506231516 23 315 9.7 20.9 0.00 0.00 0.00 55 1017.1
20260506230516 23 338 9.7 22.5 0.00 0.00 0.00 55 1017.3
20260506225516 23 338 8.0 20.9 0.00 0.00 0.00 54 1017.4
20260506224536 23 315 6.4 17.7 0.00 0.00 0.00 53 1017.5
20260506223516 23 0 6.4 16.1 0.00 0.00 0.00 54 1017.6
20260506222515 22 0 6.4 17.7 0.00 0.00 0.00 55 1017.8
20260506221516 23 270 6.4 14.5 0.00 0.00 0.00 54 1017.8
20260506220516 22 270 4.8 16.1 0.00 0.00 0.00 56 1018.0
20260506215516 22 270 8.0 24.1 0.00 0.00 0.00 57 1018.1
20260506214515 22 293 8.0 16.1 0.00 0.00 0.00 57 1018.3
20260506213536 22 293 3.2 16.1 0.00 0.00 0.00 56 1018.4
20260506212537 22 338 6.4 16.1 0.00 0.00 0.00 56 1018.5
20260506211536 21 270 6.4 16.1 0.00 0.00 0.00 57 1018.6
20260506210518 22 338 3.2 14.5 0.00 0.00 0.00 57 1018.7
20260506205518 22 338 4.8 16.1 0.00 0.00 0.00 58 1018.7
20260506204517 21 270 8.0 16.1 0.00 0.00 0.00 58 1018.8
20260506203517 21 0 4.8 14.5 0.00 0.00 0.00 58 1019.0
20260506202517 21 293 6.4 14.5 0.00 0.00 0.00 57 1019.2
20260506201517 21 315 1.6 9.7 0.00 0.00 0.00 59 1019.2
20260506200517 21 23 4.8 19.3 0.00 0.00 0.00 59 1019.2
20260506195517 20 338 6.4 19.3 0.00 0.00 0.00 60 1019.3
20260506194517 20 315 4.8 14.5 0.00 0.00 0.00 61 1019.3
20260506193517 20 315 3.2 14.5 0.00 0.00 0.00 61 1019.5
20260506192518 20 338 1.6 9.7 0.00 0.00 0.00 61 1019.6
20260506191517 19 338 1.6 6.4 0.00 0.00 0.00 63 1019.8
20260506190517 19 23 4.8 16.1 0.00 0.00 0.00 63 1019.8
20260506185537 18 338 8.0 17.7 0.00 0.00 0.00 64 1019.9
20260506184538 18 338 8.0 17.7 0.00 0.00 0.00 64 1020.0
20260506183517 18 293 3.2 14.5 0.00 0.00 0.00 66 1020.0
20260506182517 18 315 6.4 17.7 0.00 0.00 0.00 65 1020.0
20260506181517 17 270 6.4 14.5 0.00 0.00 0.00 67 1020.0
20260506180517 17 338 6.4 16.1 0.00 0.00 0.00 67 1020.0
20260506175537 17 270 6.4 12.9 0.00 0.00 0.00 68 1020.0
20260506174517 17 270 4.8 16.1 0.00 0.00 0.00 68 1020.1
20260506173516 17 293 8.0 16.1 0.00 0.00 0.00 69 1020.1
20260506172517 17 270 1.6 12.9 0.00 0.00 0.00 69 1020.2
20260506171516 17 338 3.2 12.9 0.00 0.00 0.00 68 1020.1
20260506170618 16 270 1.6 11.3 0.00 0.00 0.00 70 1020.2
20260506165517 16 315 4.8 8.0 0.00 0.00 0.00 72 1020.2
20260506164516 16 270 4.8 16.1 0.00 0.00 0.00 71 1020.1
20260506163517 16 338 1.6 6.4 0.00 0.00 0.00 71 1020.2
20260506162537 16 270 3.2 12.9 0.00 0.00 0.00 71 1020.2
20260506161516 16 0.0 0.0 0.00 0.00 0.00 72 1020.3
20260506160516 16 0.0 0.0 0.00 0.00 0.00 72 1020.3
20260506155516 15 0.0 0.0 0.00 0.00 0.00 73 1020.4
20260506154516 15 0.0 0.0 0.00 0.00 0.00 74 1020.2
20260506153516 15 0.0 0.0 0.00 0.00 0.00 74 1020.2
20260506152516 15 0.0 0.0 0.00 0.00 0.00 76 1020.2
20260506151516 15 0.0 0.0 0.00 0.00 0.00 75 1020.3
20260506150516 15 0.0 0.0 0.00 0.00 0.00 75 1020.3
20260506145517 15 0.0 0.0 0.00 0.00 0.00 76 1020.4
20260506144537 14 0.0 0.0 0.00 0.00 0.00 78 1020.3
20260506143516 13 0.0 0.0 0.00 0.00 0.00 81 1020.3
20260506142536 12 0.0 0.0 0.00 0.00 0.00 83 1020.3
20260506141516 12 0.0 0.0 0.00 0.00 0.00 84 1020.2
20260506140516 11 0.0 0.0 0.00 0.00 0.00 85 1020.0
20260506135516 11 0.0 0.0 0.00 0.00 0.00 85 1019.9
20260506134516 11 0.0 0.0 0.00 0.00 0.00 85 1019.8
20260506133516 11 0.0 0.0 0.00 0.00 0.00 85 1019.5
20260506132515 11 0.0 0.0 0.00 0.00 0.00 85 1019.5
20260506131557 11 0.0 0.0 0.00 0.00 0.00 85 1019.4
20260506130536 11 0.0 0.0 0.00 0.00 0.00 85 1019.3
20260506125516 11 0.0 0.0 0.00 0.00 0.00 84 1019.2
20260506124517 11 0.0 0.0 0.00 0.00 0.00 84 1019.2
20260506123518 11 0.0 0.0 0.00 0.00 0.00 84 1019.2
20260506122517 11 0.0 0.0 0.00 0.00 0.00 84 1019.2
20260506121517 11 0.0 0.0 0.00 0.00 0.00 84 1019.1
20260506120518 12 0.0 0.0 0.00 0.00 0.00 83 1019.1
20260506115517 12 0.0 0.0 0.00 0.00 0.00 83 1019.0
20260506114519 12 0.0 0.0 0.00 0.00 0.00 83 1019.0
20260506113517 12 0.0 0.0 0.00 0.00 0.00 83 1019.0
20260506112517 12 0.0 0.0 0.00 0.00 0.00 83 1018.8
20260506111517 12 0.0 0.0 0.00 0.00 0.00 83 1018.8
20260506110517 12 0.0 0.0 0.00 0.00 0.00 82 1018.7
20260506105517 12 0.0 0.0 0.00 0.00 0.00 82 1018.8
20260506104517 12 0.0 0.0 0.00 0.00 0.00 82 1018.8
20260506103517 12 0.0 0.0 0.00 0.00 0.00 81 1018.7
20260506102517 12 0.0 0.0 0.00 0.00 0.00 81 1018.6
20260506101537 12 0.0 0.0 0.00 0.00 0.00 80 1018.6
20260506100537 12 0.0 0.0 0.00 0.00 0.00 80 1018.6
20260506095537 13 0.0 0.0 0.00 0.00 0.00 80 1018.7
20260506094537 13 0.0 0.0 0.00 0.00 0.00 79 1018.6
20260506093517 13 0.0 0.0 0.00 0.00 0.00 79 1018.6
20260506092517 13 0.0 0.0 0.00 0.00 0.00 78 1018.6
20260506091516 13 0.0 0.0 0.00 0.00 0.00 78 1018.7
20260506090516 13 0.0 0.0 0.00 0.00 0.00 78 1018.8
20260506085516 13 0.0 0.0 0.00 0.00 0.00 78 1018.6
20260506084517 13 0.0 0.0 0.00 0.00 0.00 78 1018.6
20260506083518 13 0.0 0.0 0.00 0.00 0.00 78 1018.6
20260506082516 13 0.0 0.0 0.00 0.00 0.00 78 1018.7
20260506081516 13 0.0 0.0 0.00 0.00 0.00 78 1018.7
20260506080517 13 0.0 0.0 0.00 0.00 0.00 78 1018.6
20260506072516 13 0.0 0.0 0.00 0.00 0.00 78 1018.4
20260506071516 13 0.0 1.6 0.00 0.00 0.00 77 1018.4
20260506070517 13 0.0 3.2 0.00 0.00 0.00 77 1018.2
20260506061517 14 0.0 1.6 0.00 0.00 0.00 77 1017.8
20260506060537 14 315 1.6 8.0 0.00 0.00 0.00 77 1017.8
20260506050517 15 338 3.2 8.0 0.00 0.00 0.00 76 1017.4
20260506044518 15 293 1.6 8.0 0.00 0.00 0.00 75 1017.2
20260506043517 15 315 1.6 6.4 0.00 0.00 0.00 74 1017.1
20260506042517 15 0.0 0.0 0.00 0.00 0.00 74 1017.0
20260506041537 15 0.0 1.6 0.00 0.00 0.00 74 1016.9
20260506040517 15 0 1.6 6.4 0.00 0.00 0.00 74 1016.7
20260506035517 15 0.0 1.6 0.00 0.00 0.00 74 1016.6
20260506034517 15 338 3.2 9.7 0.00 0.00 0.00 73 1016.6
20260506033516 15 338 4.8 14.5 0.00 0.00 0.00 73 1016.4
20260506032518 15 315 3.2 8.0 0.00 0.00 0.00 73 1016.2
20260506031517 15 315 3.2 12.9 0.00 0.00 0.00 73 1016.1
20260506030537 15 338 1.6 8.0 0.00 0.00 0.00 73 1016.1
20260506025517 15 338 3.2 9.7 0.00 0.00 0.00 73 1015.8
20260506024517 15 338 6.4 12.9 0.00 0.00 0.00 72 1015.7
20260506023516 15 338 4.8 12.9 0.00 0.00 0.00 73 1015.6
20260506022517 15 315 6.4 14.5 0.00 0.00 0.00 73 1015.5
20260506021517 16 338 6.4 14.5 0.00 0.00 0.00 72 1015.5
20260506020536 16 338 1.6 9.7 0.00 0.00 0.00 70 1015.5
20260506015516 16 0.0 0.0 0.00 0.00 0.00 69 1015.6
20260506014517 16 315 1.6 4.8 0.00 0.00 0.00 68 1015.7
20260506013516 16 0.0 0.0 0.00 0.00 0.00 69 1015.7
20260506012537 16 0.0 0.0 0.00 0.00 0.00 68 1015.6
20260506011517 16 0.0 0.0 0.00 0.00 0.00 69 1015.6
20260506010516 16 315 1.6 4.8 0.00 0.00 0.00 69 1015.5
20260506005536 16 315 3.2 8.0 0.00 0.00 0.00 68 1015.6
20260506004516 16 0.0 3.2 0.00 0.00 0.00 68 1015.6
20260506003516 16 338 1.6 6.4 0.00 0.00 0.00 68 1015.5
20260506002516 16 0.0 1.6 0.00 0.00 0.00 68 1015.5
20260506001536 16 315 1.6 8.0 0.00 0.00 0.00 68 1015.4
20260506000516 16 0.0 4.8 0.00 0.00 0.00 68 1015.3
20260505235516 16 315 1.6 6.4 0.00 0.00 0.00 68 1015.3
20260505234516 16 315 3.2 8.0 0.00 0.00 0.00 68 1015.2
20260505233516 16 315 1.6 4.8 0.00 0.00 0.00 69 1015.3